Location: Dallas
(32.7833°N, 96.8000°W)
Time: 12:49:12
(UTC-06:00)

Envisat - Pass Details

Date: 12 December 2021
Orbit: 764 x 766 km, 98.2° (Epoch: 28 January)

Event Time Altitude Azimuth Distance (km) Brightness Sun altitude
Rises 04:38:38 0° 24° (NNE) 3,234 6.4 -33.1°
Reaches altitude 10° 04:41:12 10° 35° (NE) 2,304 5.7 -32.6°
Maximum altitude 04:45:40 31° 97° (E) 1,315 4.7 -31.7°
Drops below altitude 10° 04:50:07 10° 159° (SSE) 2,291 5.8 -30.7°
Sets 04:52:39 0° 170° (S) 3,212 6.5 -30.2°
